Location: Newark
(49.8969°N, 3.3422°E)
Time: 14:36:51
(UTC+00:00)

Vanguard 1 Rocket - Pass Details

Date: 22 January 2020
Orbit: 650 x 4226 km, 34.3° (Epoch: 28 February)

Event Time Altitude Azimuth Distance (km) Brightness Sun altitude
Rises 18:16:56 0° 273° (W) 7,523 13.6 -17.9°
Reaches altitude 10° 18:27:45 10° 248° (WSW) 7,139 13.1 -19.6°
Maximum altitude 18:34:44 12° 231° (SW) 7,182 12.7 -20.7°
Drops below altitude 10° 18:42:02 10° 215° (SW) 7,425 12.5 -21.9°
Sets 18:54:32 0° 190° (S) 8,176 12.4 -23.9°
